SCP
0 0 0 0 0 0 0 0 0 0 0 0 0 0 0 0 0 -0 -0 -0 -0 0 -0 0 0 0 0 -0 -0 0 0 0 -0 -0 -0 -0 -0 0 0 0 0 0 -0 -0 -0 -0 -0 -0 -0
0 0 0 0 0 0 0 0 0 0 0 0 0 0 0 -0 0 -0 -0 0 0 -0 -0 0 -0 0 0 0 -0 0 0 0 -0 -0 -0 -0 -0 0 -0 -0 0 -0 -0 -0 -0 -0 -0 -0 0
0 0 0 0 0 0 0 0 0 0 0 0 0 0 0 0 0 -0 -0 -0 -0 -0 -0 -0 -0 0 0 0 -0 -0 0 0 -0 -0 -0 -0 0 -0 -0 -0 -0 -0 -0 -0 -0 -0 -0 0 0
0 0 0 0 0 0 0 0 0 0 0 0 0 0 0 0 -0 -0 -0 -0 -0 -0 -0 -0 -0 0 -0 -0 -0 -0 -0 -0 -0 -0 -0 -0 -0 0 -0 -0 0 -0 0 0 0 0 0 0 0
0 0 0 0 0 0 0 0 0 0 0 0 0 0 0 0 -0 -0 -0 -0 -0 -0 -0 -0 -0 -0 -0 -0 0 -0 -0 0 -0 -0 -0 -0 -0 -0 -0 -0 0 0 0 0 0 0 0 0 0
0 0 0 0 0 0 0 0 0 0 0 0 0 0 0 0 -0 -0 -0 -0 -0 -0 -0 -0 -0 -0 -0 -0 -0 -0 -0 -0 -0 -0 -0 -0 -0 -0 -0 0 0 0 0 0 0 0 0 0 0
0 0 0 0 0 0 0 0 0 0 0 0 0 0 0 0 -0 -0 -0 -0 -0 -0 -0 -0 -0 -0 -0 -0 -0 -0 -0 -0 -0 -0 -0 -0 -0 -0 -0 0 0 0 0 0 0 0 0 0 0
0 0 0 0 0 0 0 0 0 0 0 0 0 0 0 -0 -0 -0 -0 -0 -0 -0 -0 -0 -0 -0 -0 -0 -0 -0 -0 -0 -0 -0 -0 -0 -0 -0 -0 0 0 0 0 0 0 0 0 0 0
0 0 0 0 0 0 0 0 0 0 0 0 0 0 0 -0 0 -0 -0 -0 -0 -0 -0 -0 -0 -0 -0 -0 -0 -0 -0 -0 -0 -0 -0 -0 -0 0 0 0 0 0 0 0 0 0 0 0 0
0 0 0 0 0 0 0 0 0 0 0 0 0 0 0 0 0 -0 -0 -0 -0 -0 -0 -0 -0 -0 -0 -0 -0 -0 -0 -0 -0 -0 -0 -0 -0 0 0 0 0 0 0 0 0 0 0 0 0
0 0 0 0 0 0 0 0 0 0 0 0 0 0 0 0 0 0 -0 -0 -0 -0 0 0 -0 -0 -0 -0 -0 0 -0 -0 -0 -0 -0 -0 -0 -0 0 0 0 0 0 0 0 0 0 0 0
0 0 0 0 0 0 0 0 0 0 0 0 0 0 0 0 0 0 0 -0 -0 -0 -0 0 0 0 -0 0 0 -0 0 -0 -0 -0 -0 -0 -0 0 0 0 0 0 0 0 0 0 0 0 0
0 0 0 0 0 0 0 0 0 0 0 0 0 0 0 0 0 0 0 0 0 0 0 -0 0 0 0 0 0 0 0 0 -0 -0 -0 -0 0 0 0 0 0 0 0 0 0 0 0 0 0
0 0 0 0 0 0 0 0 0 0 0 0 0 0 0 0 0 0 0 0 0 0 0 0 0 0 0 0 0 0 0 0 0 0 0 0 0 0 0 0 0 0 0 0 0 0 0 0 0
0 0 0 0 0 0 0 0 -0 0 0 0 0 0 0 0 0 0 0 0 0 0 0 0 0 0 0 0 0 0 0 0 0 0 0 0 0 0 0 0 0 0 0 0 0 0 0 0 0
0 0 0 0 0 0 0 0 0 0 0 0 0 0 0 0 0 0 0 0 0 0 0 0 0 0 0 0 0 0 0 0 0 0 0 0 0 0 0 0 0 0 0 0 0 0 0 0 0
0 0 0 0 0 0 0 0 0 0 0 0 0 0 0 0 0 0 0 0 0 0 0 0 0 0 0 0 0 0 0 0 0 0 0 0 0 0 0 0 0 0 0 0 0 0 0 0 0
0 0 0 0 0 0 0 0 0 0 0 0 0 0 0 0 0 0 0 0 0 0 0 0 0 0 0 0 0 0 0 0 0 0 0 0 0 0 0 0 0 0 0 0 0 0 0 0 0
0 0 0 0 0 0 0 0 0 0 0 0 0 0 0 0 0 0 0 0 0 0 0 0 0 0 0 0 0 0 0 0 0 0 0 0 0 0 0 0 0 0 0 0 0 0 0 0 0
0 0 0 0 0 0 0 0 0 0 0 0 0 0 0 0 0 0 0 0 0 0 0 0 0 0 0 0 0 0 0 0 0 0 0 0 0 0 0 0 0 0 0 0 0 0 0 0 0
0 0 0 0 0 0 0 -0 0 0 0 0 0 0 0 0 0 0 0 0 0 0 0 0 0 0 0 0 0 0 0 0 0 0 0 0 0 0 0 0 0 0 0 0 0 0 0 0 0
0 0 0 0 0 0 0 -0 0 0 0 0 0 -0 -0 0 0 0 0 0 0 0 0 0 0 0 0 0 0 0 0 0 0 0 0 0 0 0 0 0 0 0 0 0 0 0 0 0 0
0 0 0 0 0 0 0 0 -0 0 0 0 0 0 -0 0 0 0 0 -0 0 0 0 0 0 0 0 0 0 0 0 0 0 0 0 0 0 0 0 0 0 0 0 0 0 0 0 0 0
0 0 0 0 0 0 0 0 -0 0 0 0 0 0 0 0 0 0 0 0 0 0 0 0 0 0 0 0 0 0 0 0 0 0 0 0 0 0 0 0 0 0 0 0 0 0 0 0 0
0 0 0 0 0 0 0 0 0 0 -0 0 0 0 0 0 0 0 0 0 0 0 0 0 0 0 0 0 0 0 0 0 0 0 0 0 0 0 0 0 0 0 0 0 0 0 0 0 0
0 0 0 0 0 0 0 0 0 0 0 -0 0 0 0 0 0 0 0 0 0 0 0 0 0 0 0 0 0 0 0 0 0 0 0 0 0 0 0 0 0 0 0 0 0 0 0 0 0
0 0 0 0 0 0 0 0 0 0 0 0 0 0 0 0 0 0 0 0 0 0 0 0 0 0 0 0 0 0 0 0 0 0 0 0 0 0 0 0 0 0 0 0 0 0 0 0 0
0 0 0 0 0 0 0 0 0 0 0 -0 0 -0 -0 0 0 0 0 0 0 0 0 0 0 0 0 0 0 0 0 0 0 0 0 0 0 0 0 0 0 0 0 0 0 0 0 0 0
0 0 0 0 0 0 0 0 0 0 0 0 0 0 0 0 0 0 0 0 0 0 0 0 0 0 0 0 0 0 0 0 0 0 0 0 0 0 0 0 0 0 0 0 0 0 0 0 0
0 0 0 0 0 0 0 0 0 0 0 0 0 0 0 0 0 0 0 0 0 0 0 0 0 0 0 0 0 0 0 0 0 0 0 0 0 0 0 0 0 0 0 0 0 0 0 0 0
Wind_Speed_500mb
16 19 20 10 11 9 4 10 11 15 14 7 17 2 13 21 15 9 30 22 32 28 20 22 26 24 17 18 22 27 24 20 17 16 15 14 15 18 21 31 31 34 32 31 32 31 31 30 31
14 16 11 12 13 15 13 10 14 17 18 18 13 7 4 15 14 27 27 31 31 29 25 25 27 23 20 21 25 26 23 22 15 13 13 17 20 18 26 31 29 28 29 29 31 31 32 30 31
12 10 14 7 11 8 8 12 19 16 19 20 10 5 6 9 13 37 24 38 33 27 25 26 27 22 22 24 24 22 21 20 18 20 22 21 19 23 23 30 29 26 22 27 28 30 30 30 31
5 6 8 15 11 5 9 11 20 21 9 7 1 11 10 9 26 21 42 37 35 30 25 27 27 20 22 23 22 25 23 19 22 24 22 20 18 20 23 23 26 24 24 26 29 28 27 28 30
9 7 9 9 10 2 3 2 14 19 17 17 10 10 10 11 22 33 42 38 35 32 26 28 25 21 21 21 24 22 21 24 24 23 24 23 22 21 22 24 24 23 22 24 26 26 26 27 29
16 8 9 13 18 4 3 3 16 19 12 13 11 13 12 15 25 36 39 36 34 34 30 28 27 22 21 20 23 24 18 22 23 17 18 19 19 20 20 21 21 21 21 21 23 24 25 25 27
13 13 20 15 14 6 8 9 19 22 16 17 2 9 9 22 32 38 37 34 34 31 32 30 29 25 23 21 22 19 20 21 21 15 12 14 15 17 17 16 17 18 18 18 19 21 23 23 24
21 8 16 16 17 16 11 12 9 27 16 11 8 6 10 31 43 39 36 34 33 31 34 29 29 27 25 24 21 18 18 18 15 11 9 8 10 12 13 13 14 14 14 15 15 17 20 22 21
15 15 20 25 17 12 10 14 5 11 9 15 11 1 7 34 48 42 39 36 35 37 34 29 30 28 25 25 22 19 17 16 14 12 11 9 7 8 8 11 11 11 11 11 12 13 15 16 17
19 19 24 10 14 7 8 12 15 15 24 19 15 9 24 30 51 50 46 43 43 45 45 40 30 31 29 25 24 21 17 15 13 12 12 12 10 9 6 8 8 7 8 8 8 9 9 10 10
12 19 10 12 5 3 4 10 11 21 20 30 28 25 32 38 51 51 47 45 46 44 48 45 36 32 31 28 27 24 23 20 16 14 14 13 10 10 8 7 8 6 5 4 4 4 5 4 5
7 3 9 11 10 7 7 2 12 27 21 8 16 29 39 41 51 53 49 45 44 45 47 49 43 41 36 32 29 24 24 23 19 17 15 13 12 11 11 8 6 6 6 4 3 2 2 2 1
15 10 11 11 12 7 4 11 14 19 34 20 12 31 40 40 45 46 45 42 42 44 46 51 50 44 42 39 33 29 28 25 23 22 20 18 15 13 12 11 10 9 10 9 9 8 7 7 7
16 16 12 14 14 10 12 19 7 17 25 29 23 35 38 41 43 41 47 49 48 47 48 49 52 49 47 44 40 35 34 31 30 28 25 23 21 19 17 14 13 13 13 14 13 13 13 13 13
10 15 8 14 18 10 14 24 26 34 15 25 32 33 36 38 40 46 47 50 51 49 48 51 53 51 49 46 45 43 39 37 37 34 33 30 28 25 23 21 19 18 16 16 15 16 16 17 19
6 6 16 18 23 12 13 31 29 28 29 31 34 37 38 40 42 42 43 45 48 50 51 55 56 53 52 50 45 45 45 43 41 40 39 36 34 32 31 29 26 24 21 18 17 17 16 18 19
6 6 21 19 23 15 24 23 29 32 31 34 37 39 41 40 42 42 45 45 47 50 55 58 58 55 54 53 49 47 47 47 44 44 44 44 42 39 37 35 31 29 24 22 21 19 19 18 22
14 12 13 31 15 25 24 38 31 20 22 33 35 39 41 42 47 44 46 45 46 48 52 53 58 57 55 54 55 52 52 50 48 48 46 46 47 44 41 38 36 32 29 26 24 25 24 23 27
29 29 31 27 12 14 29 39 36 42 42 36 36 37 41 46 39 41 46 47 47 47 52 55 57 59 60 60 62 60 58 50 48 52 47 42 44 45 44 44 39 35 33 29 29 29 29 28 27
23 28 26 14 13 14 24 39 33 36 45 46 48 43 44 43 40 42 46 51 56 53 57 61 63 63 66 67 65 64 60 54 50 48 47 44 42 42 45 40 36 36 33 31 31 31 30 31 28
31 33 27 21 7 20 20 37 41 38 57 55 54 53 49 50 45 49 51 60 59 62 64 67 68 69 69 70 66 65 62 57 58 58 56 51 46 48 41 38 42 40 37 37 37 35 37 35 34
37 25 20 17 10 14 8 17 24 9 24 35 55 57 58 55 62 65 64 64 65 67 65 66 69 71 73 72 72 74 73 75 66 58 57 54 50 49 45 42 43 41 44 45 41 40 39 35 36
32 27 27 18 17 22 27 12 13 23 22 32 43 59 66 67 71 70 69 67 65 65 69 71 72 74 76 76 76 75 76 72 65 59 57 53 51 51 50 45 43 44 49 42 38 39 40 38 34
27 23 14 9 14 19 33 29 23 28 35 30 35 50 58 64 62 62 62 62 66 64 69 72 73 77 76 80 81 79 76 72 66 64 61 57 52 49 49 45 42 42 40 38 39 41 45 42 38
28 35 10 9 13 18 5 16 30 13 24 30 23 22 30 50 62 59 52 64 66 66 66 69 71 76 79 81 81 80 80 75 70 66 63 60 55 52 47 45 45 45 41 35 40 44 42 41 41
40 37 14 16 14 10 6 19 10 32 43 47 33 21 17 15 32 51 51 54 65 66 65 68 70 75 79 82 82 77 76 76 74 69 71 69 62 51 49 51 52 50 48 45 44 44 43 44 43
42 35 18 7 3 3 15 20 18 26 28 21 22 26 33 31 34 33 43 58 54 56 62 70 75 79 82 82 82 79 75 73 72 70 69 73 62 58 57 57 57 55 55 51 50 44 46 45 44
37 30 16 11 11 11 12 16 18 13 30 22 15 24 23 26 31 38 36 37 41 44 50 58 64 66 69 73 75 72 69 67 65 64 68 65 63 61 56 57 57 59 58 54 52 51 49 46 41
18 32 19 16 11 6 4 7 7 18 12 12 7 15 18 22 28 30 42 46 42 38 37 41 46 48 51 55 61 63 65 64 61 60 59 62 59 58 56 56 57 55 54 51 45 44 43 42 39
31 21 27 15 16 6 4 10 7 6 16 7 9 7 8 10 16 20 29 38 38 36 36 34 33 33 34 37 43 47 49 52 53 55 57 60 59 54 53 52 50 50 51 48 47 45 41 38 38
Wind_Direction_500mb
318 331 332 299 242 246 135 144 102 130 148 86 115 117 42 17 7 55 139 137 139 136 137 125 129 119 121 107 127 143 131 130 124 128 130 113 99 88 84 90 83 87 83 78 76 71 73 78 79
304 322 306 278 259 216 144 123 164 150 112 142 116 114 150 86 59 128 138 144 139 144 128 134 137 117 114 101 114 143 146 142 136 165 148 112 108 93 98 100 91 85 81 77 74 75 72 74 77
285 310 281 288 268 269 121 170 120 115 135 158 132 43 55 76 110 136 160 145 142 143 138 139 139 123 112 106 109 127 150 162 127 103 109 109 104 98 107 105 102 96 87 78 73 70 70 72 76
277 258 242 249 231 54 21 153 130 140 147 194 118 120 90 97 145 152 149 148 143 147 145 142 141 138 112 108 107 111 108 110 120 111 103 99 107 114 101 113 102 96 84 78 76 73 70 73 80
213 243 240 253 245 248 128 51 179 179 162 177 186 122 103 124 150 149 150 150 152 148 153 146 141 145 123 115 112 111 97 96 101 107 99 97 90 91 97 101 91 90 85 83 77 72 72 79 82
207 221 225 234 246 169 200 171 193 197 176 151 183 149 122 157 154 156 154 154 155 158 155 152 147 145 140 128 124 117 119 102 101 114 106 101 96 93 93 92 91 90 87 87 80 75 72 80 83
220 216 222 227 242 228 201 162 203 201 191 191 148 211 121 170 169 161 159 160 157 167 160 161 157 152 149 144 144 134 131 127 129 126 102 102 101 100 103 99 92 89 89 88 82 78 78 84 85
211 226 212 220 226 233 138 181 218 206 195 150 189 200 183 183 174 164 164 166 163 174 166 169 167 163 160 159 155 148 137 142 141 137 129 117 113 111 117 118 101 93 90 89 86 82 80 80 82
195 219 216 220 217 226 146 207 187 178 178 195 196 109 112 187 174 166 171 172 174 178 176 173 175 171 173 172 169 165 158 152 151 148 144 137 118 113 129 123 121 108 96 91 87 83 82 78 76
217 223 226 233 217 215 176 226 167 188 201 207 194 176 155 182 180 175 181 181 182 188 185 179 181 180 180 180 178 176 174 172 168 165 163 152 167 174 168 152 147 130 108 98 91 89 87 77 72
207 219 197 189 169 173 181 207 209 214 207 223 208 190 174 181 188 190 190 194 192 195 192 193 182 190 189 189 188 188 187 190 190 184 180 181 186 188 202 176 174 166 153 130 112 96 81 86 101
188 217 187 152 160 163 190 236 211 226 219 189 216 197 187 196 198 200 199 197 194 197 205 200 193 201 194 200 198 201 202 201 202 206 203 200 200 197 202 208 207 208 209 209 217 211 245 253 260
220 177 189 154 162 194 187 223 251 242 239 237 218 186 196 202 207 205 203 200 201 202 207 210 207 205 208 205 205 209 212 214 215 218 217 216 217 216 217 224 227 230 234 237 245 254 266 269 273
195 176 179 188 198 203 225 244 209 241 236 221 213 201 201 203 205 202 202 202 204 205 207 214 214 213 214 215 214 216 218 219 224 227 230 228 229 231 231 235 240 243 242 247 253 260 268 278 281
148 164 213 206 197 220 216 247 235 246 253 223 217 215 211 210 205 208 209 207 206 207 208 212 219 218 220 222 225 226 226 225 230 232 235 235 235 239 240 242 244 248 254 259 263 267 273 284 290
122 232 214 197 203 194 195 255 243 235 221 234 228 219 214 215 213 213 212 210 212 208 208 214 221 219 222 226 227 231 232 231 236 238 241 242 241 242 244 246 249 251 256 263 268 275 284 292 294
66 168 229 220 209 202 206 258 253 242 233 240 233 226 217 218 216 214 213 211 210 214 214 217 221 221 223 226 228 234 239 236 236 242 244 246 246 245 247 248 250 254 257 263 274 280 284 292 301
153 178 234 229 203 228 218 248 248 213 234 242 243 230 224 221 220 214 212 211 210 213 211 213 220 222 224 226 230 233 238 238 234 238 244 246 249 248 247 249 250 256 259 263 272 278 279 285 288
197 204 208 216 152 230 239 250 251 248 236 244 243 243 233 233 226 219 211 210 211 212 209 210 214 220 222 222 225 229 234 235 236 240 243 245 247 250 248 255 251 255 257 260 267 273 280 282 287
225 207 221 218 162 217 258 261 258 254 251 244 242 233 233 235 230 218 213 211 216 212 213 212 217 220 222 227 229 233 239 239 243 245 250 241 247 249 249 252 249 252 255 257 261 269 274 277 282
206 208 212 232 163 239 272 274 259 247 243 243 238 238 232 228 223 216 212 219 217 217 218 218 222 223 225 228 230 234 239 241 240 243 244 246 246 248 249 247 250 250 252 252 259 262 265 273 280
204 216 223 217 241 246 185 278 268 241 228 227 233 229 226 222 224 222 221 217 220 225 223 224 224 226 228 231 231 235 239 239 245 249 251 253 248 250 252 252 250 250 253 253 260 266 270 270 275
220 184 205 215 245 277 239 258 270 248 240 244 232 230 227 223 227 230 227 233 233 232 230 231 231 231 233 234 238 236 241 246 249 251 251 251 250 249 251 252 251 251 247 248 253 259 263 267 269
128 151 151 199 252 253 238 236 252 246 235 242 240 233 228 224 225 233 236 237 236 235 235 237 236 238 239 239 239 241 242 246 247 247 248 250 248 246 247 251 250 253 254 246 251 255 258 261 262
161 161 154 202 214 241 103 235 244 251 239 244 252 255 237 225 225 228 228 233 237 235 237 239 241 242 241 242 241 241 243 245 246 248 248 248 246 247 247 246 242 243 246 246 242 248 253 258 267
186 182 175 194 217 240 139 237 249 244 245 247 249 246 257 248 228 232 230 233 242 242 242 243 244 244 242 242 242 240 241 241 244 245 248 251 251 251 246 243 242 240 239 248 250 251 253 259 264
193 206 212 94 133 289 212 247 275 261 240 235 239 242 242 233 226 235 234 236 237 241 244 246 246 244 240 237 239 239 237 240 242 245 244 248 249 249 245 243 239 239 238 240 245 253 254 260 266
194 163 189 211 192 228 242 257 254 222 237 238 246 247 256 244 229 224 231 229 228 234 242 244 243 246 244 240 239 240 241 241 241 241 242 243 245 246 244 243 242 240 240 240 242 251 254 257 265
174 190 204 185 216 252 274 233 209 244 156 180 291 280 258 274 238 221 228 228 234 243 246 242 238 237 236 234 235 237 238 238 240 239 239 242 241 243 244 241 240 241 236 235 238 245 245 250 260
203 196 196 186 194 193 60 271 52 171 142 87 323 277 254 237 209 210 226 228 231 232 228 224 223 222 223 225 227 230 233 234 235 236 239 237 238 242 243 241 239 238 231 234 237 240 238 250 257
Wind_Speed_850mb
16 19 20 10 11 9 4 10 11 15 14 7 17 2 13 21 15 9 30 22 32 28 20 22 26 24 17 18 22 27 24 20 17 16 15 14 15 18 21 31 31 34 32 31 32 31 31 30 31
14 16 11 12 13 15 13 10 14 17 18 18 13 7 4 15 14 27 27 31 31 29 25 25 27 23 20 21 25 26 23 22 15 13 13 17 20 18 26 31 29 28 29 29 31 31 32 30 31
12 10 14 7 11 8 8 12 19 16 19 20 10 5 6 9 13 37 24 38 33 27 25 26 27 22 22 24 24 22 21 20 18 20 22 21 19 23 23 30 29 26 22 27 28 30 30 30 31
5 6 8 15 11 5 9 11 20 21 9 7 1 11 10 9 26 21 42 37 35 30 25 27 27 20 22 23 22 25 23 19 22 24 22 20 18 20 23 23 26 24 24 26 29 28 27 28 30
9 7 9 9 10 2 3 2 14 19 17 17 10 10 10 11 22 33 42 38 35 32 26 28 25 21 21 21 24 22 21 24 24 23 24 23 22 21 22 24 24 23 22 24 26 26 26 27 29
16 8 9 13 18 4 3 3 16 19 12 13 11 13 12 15 25 36 39 36 34 34 30 28 27 22 21 20 23 24 18 22 23 17 18 19 19 20 20 21 21 21 21 21 23 24 25 25 27
13 13 20 15 14 6 8 9 19 22 16 17 2 9 9 22 32 38 37 34 34 31 32 30 29 25 23 21 22 19 20 21 21 15 12 14 15 17 17 16 17 18 18 18 19 21 23 23 24
21 8 16 16 17 16 11 12 9 27 16 11 8 6 10 31 43 39 36 34 33 31 34 29 29 27 25 24 21 18 18 18 15 11 9 8 10 12 13 13 14 14 14 15 15 17 20 22 21
15 15 20 25 17 12 10 14 5 11 9 15 11 1 7 34 48 42 39 36 35 37 34 29 30 28 25 25 22 19 17 16 14 12 11 9 7 8 8 11 11 11 11 11 12 13 15 16 17
19 19 24 10 14 7 8 12 15 15 24 19 15 9 24 30 51 50 46 43 43 45 45 40 30 31 29 25 24 21 17 15 13 12 12 12 10 9 6 8 8 7 8 8 8 9 9 10 10
12 19 10 12 5 3 4 10 11 21 20 30 28 25 32 38 51 51 47 45 46 44 48 45 36 32 31 28 27 24 23 20 16 14 14 13 10 10 8 7 8 6 5 4 4 4 5 4 5
7 3 9 11 10 7 7 2 12 27 21 8 16 29 39 41 51 53 49 45 44 45 47 49 43 41 36 32 29 24 24 23 19 17 15 13 12 11 11 8 6 6 6 4 3 2 2 2 1
15 10 11 11 12 7 4 11 14 19 34 20 12 31 40 40 45 46 45 42 42 44 46 51 50 44 42 39 33 29 28 25 23 22 20 18 15 13 12 11 10 9 10 9 9 8 7 7 7
16 16 12 14 14 10 12 19 7 17 25 29 23 35 38 41 43 41 47 49 48 47 48 49 52 49 47 44 40 35 34 31 30 28 25 23 21 19 17 14 13 13 13 14 13 13 13 13 13
10 15 8 14 18 10 14 24 26 34 15 25 32 33 36 38 40 46 47 50 51 49 48 51 53 51 49 46 45 43 39 37 37 34 33 30 28 25 23 21 19 18 16 16 15 16 16 17 19
6 6 16 18 23 12 13 31 29 28 29 31 34 37 38 40 42 42 43 45 48 50 51 55 56 53 52 50 45 45 45 43 41 40 39 36 34 32 31 29 26 24 21 18 17 17 16 18 19
6 6 21 19 23 15 24 23 29 32 31 34 37 39 41 40 42 42 45 45 47 50 55 58 58 55 54 53 49 47 47 47 44 44 44 44 42 39 37 35 31 29 24 22 21 19 19 18 22
14 12 13 31 15 25 24 38 31 20 22 33 35 39 41 42 47 44 46 45 46 48 52 53 58 57 55 54 55 52 52 50 48 48 46 46 47 44 41 38 36 32 29 26 24 25 24 23 27
29 29 31 27 12 14 29 39 36 42 42 36 36 37 41 46 39 41 46 47 47 47 52 55 57 59 60 60 62 60 58 50 48 52 47 42 44 45 44 44 39 35 33 29 29 29 29 28 27
23 28 26 14 13 14 24 39 33 36 45 46 48 43 44 43 40 42 46 51 56 53 57 61 63 63 66 67 65 64 60 54 50 48 47 44 42 42 45 40 36 36 33 31 31 31 30 31 28
31 33 27 21 7 20 20 37 41 38 57 55 54 53 49 50 45 49 51 60 59 62 64 67 68 69 69 70 66 65 62 57 58 58 56 51 46 48 41 38 42 40 37 37 37 35 37 35 34
37 25 20 17 10 14 8 17 24 9 24 35 55 57 58 55 62 65 64 64 65 67 65 66 69 71 73 72 72 74 73 75 66 58 57 54 50 49 45 42 43 41 44 45 41 40 39 35 36
32 27 27 18 17 22 27 12 13 23 22 32 43 59 66 67 71 70 69 67 65 65 69 71 72 74 76 76 76 75 76 72 65 59 57 53 51 51 50 45 43 44 49 42 38 39 40 38 34
27 23 14 9 14 19 33 29 23 28 35 30 35 50 58 64 62 62 62 62 66 64 69 72 73 77 76 80 81 79 76 72 66 64 61 57 52 49 49 45 42 42 40 38 39 41 45 42 38
28 35 10 9 13 18 5 16 30 13 24 30 23 22 30 50 62 59 52 64 66 66 66 69 71 76 79 81 81 80 80 75 70 66 63 60 55 52 47 45 45 45 41 35 40 44 42 41 41
40 37 14 16 14 10 6 19 10 32 43 47 33 21 17 15 32 51 51 54 65 66 65 68 70 75 79 82 82 77 76 76 74 69 71 69 62 51 49 51 52 50 48 45 44 44 43 44 43
42 35 18 7 3 3 15 20 18 26 28 21 22 26 33 31 34 33 43 58 54 56 62 70 75 79 82 82 82 79 75 73 72 70 69 73 62 58 57 57 57 55 55 51 50 44 46 45 44
37 30 16 11 11 11 12 16 18 13 30 22 15 24 23 26 31 38 36 37 41 44 50 58 64 66 69 73 75 72 69 67 65 64 68 65 63 61 56 57 57 59 58 54 52 51 49 46 41
18 32 19 16 11 6 4 7 7 18 12 12 7 15 18 22 28 30 42 46 42 38 37 41 46 48 51 55 61 63 65 64 61 60 59 62 59 58 56 56 57 55 54 51 45 44 43 42 39
31 21 27 15 16 6 4 10 7 6 16 7 9 7 8 10 16 20 29 38 38 36 36 34 33 33 34 37 43 47 49 52 53 55 57 60 59 54 53 52 50 50 51 48 47 45 41 38 38
Wind_Direction_850mb
318 331 332 299 242 246 135 144 102 130 148 86 115 117 42 17 7 55 139 137 139 136 137 125 129 119 121 107 127 143 131 130 124 128 130 113 99 88 84 90 83 87 83 78 76 71 73 78 79
304 322 306 278 259 216 144 123 164 150 112 142 116 114 150 86 59 128 138 144 139 144 128 134 137 117 114 101 114 143 146 142 136 165 148 112 108 93 98 100 91 85 81 77 74 75 72 74 77
285 310 281 288 268 269 121 170 120 115 135 158 132 43 55 76 110 136 160 145 142 143 138 139 139 123 112 106 109 127 150 162 127 103 109 109 104 98 107 105 102 96 87 78 73 70 70 72 76
277 258 242 249 231 54 21 153 130 140 147 194 118 120 90 97 145 152 149 148 143 147 145 142 141 138 112 108 107 111 108 110 120 111 103 99 107 114 101 113 102 96 84 78 76 73 70 73 80
213 243 240 253 245 248 128 51 179 179 162 177 186 122 103 124 150 149 150 150 152 148 153 146 141 145 123 115 112 111 97 96 101 107 99 97 90 91 97 101 91 90 85 83 77 72 72 79 82
207 221 225 234 246 169 200 171 193 197 176 151 183 149 122 157 154 156 154 154 155 158 155 152 147 145 140 128 124 117 119 102 101 114 106 101 96 93 93 92 91 90 87 87 80 75 72 80 83
220 216 222 227 242 228 201 162 203 201 191 191 148 211 121 170 169 161 159 160 157 167 160 161 157 152 149 144 144 134 131 127 129 126 102 102 101 100 103 99 92 89 89 88 82 78 78 84 85
211 226 212 220 226 233 138 181 218 206 195 150 189 200 183 183 174 164 164 166 163 174 166 169 167 163 160 159 155 148 137 142 141 137 129 117 113 111 117 118 101 93 90 89 86 82 80 80 82
195 219 216 220 217 226 146 207 187 178 178 195 196 109 112 187 174 166 171 172 174 178 176 173 175 171 173 172 169 165 158 152 151 148 144 137 118 113 129 123 121 108 96 91 87 83 82 78 76
217 223 226 233 217 215 176 226 167 188 201 207 194 176 155 182 180 175 181 181 182 188 185 179 181 180 180 180 178 176 174 172 168 165 163 152 167 174 168 152 147 130 108 98 91 89 87 77 72
207 219 197 189 169 173 181 207 209 214 207 223 208 190 174 181 188 190 190 194 192 195 192 193 182 190 189 189 188 188 187 190 190 184 180 181 186 188 202 176 174 166 153 130 112 96 81 86 101
188 217 187 152 160 163 190 236 211 226 219 189 216 197 187 196 198 200 199 197 194 197 205 200 193 201 194 200 198 201 202 201 202 206 203 200 200 197 202 208 207 208 209 209 217 211 245 253 260
220 177 189 154 162 194 187 223 251 242 239 237 218 186 196 202 207 205 203 200 201 202 207 210 207 205 208 205 205 209 212 214 215 218 217 216 217 216 217 224 227 230 234 237 245 254 266 269 273
195 176 179 188 198 203 225 244 209 241 236 221 213 201 201 203 205 202 202 202 204 205 207 214 214 213 214 215 214 216 218 219 224 227 230 228 229 231 231 235 240 243 242 247 253 260 268 278 281
148 164 213 206 197 220 216 247 235 246 253 223 217 215 211 210 205 208 209 207 206 207 208 212 219 218 220 222 225 226 226 225 230 232 235 235 235 239 240 242 244 248 254 259 263 267 273 284 290
122 232 214 197 203 194 195 255 243 235 221 234 228 219 214 215 213 213 212 210 212 208 208 214 221 219 222 226 227 231 232 231 236 238 241 242 241 242 244 246 249 251 256 263 268 275 284 292 294
66 168 229 220 209 202 206 258 253 242 233 240 233 226 217 218 216 214 213 211 210 214 214 217 221 221 223 226 228 234 239 236 236 242 244 246 246 245 247 248 250 254 257 263 274 280 284 292 301
153 178 234 229 203 228 218 248 248 213 234 242 243 230 224 221 220 214 212 211 210 213 211 213 220 222 224 226 230 233 238 238 234 238 244 246 249 248 247 249 250 256 259 263 272 278 279 285 288
197 204 208 216 152 230 239 250 251 248 236 244 243 243 233 233 226 219 211 210 211 212 209 210 214 220 222 222 225 229 234 235 236 240 243 245 247 250 248 255 251 255 257 260 267 273 280 282 287
225 207 221 218 162 217 258 261 258 254 251 244 242 233 233 235 230 218 213 211 216 212 213 212 217 220 222 227 229 233 239 239 243 245 250 241 247 249 249 252 249 252 255 257 261 269 274 277 282
206 208 212 232 163 239 272 274 259 247 243 243 238 238 232 228 223 216 212 219 217 217 218 218 222 223 225 228 230 234 239 241 240 243 244 246 246 248 249 247 250 250 252 252 259 262 265 273 280
204 216 223 217 241 246 185 278 268 241 228 227 233 229 226 222 224 222 221 217 220 225 223 224 224 226 228 231 231 235 239 239 245 249 251 253 248 250 252 252 250 250 253 253 260 266 270 270 275
220 184 205 215 245 277 239 258 270 248 240 244 232 230 227 223 227 230 227 233 233 232 230 231 231 231 233 234 238 236 241 246 249 251 251 251 250 249 251 252 251 251 247 248 253 259 263 267 269
128 151 151 199 252 253 238 236 252 246 235 242 240 233 228 224 225 233 236 237 236 235 235 237 236 238 239 239 239 241 242 246 247 247 248 250 248 246 247 251 250 253 254 246 251 255 258 261 262
161 161 154 202 214 241 103 235 244 251 239 244 252 255 237 225 225 228 228 233 237 235 237 239 241 242 241 242 241 241 243 245 246 248 248 248 246 247 247 246 242 243 246 246 242 248 253 258 267
186 182 175 194 217 240 139 237 249 244 245 247 249 246 257 248 228 232 230 233 242 242 242 243 244 244 242 242 242 240 241 241 244 245 248 251 251 251 246 243 242 240 239 248 250 251 253 259 264
193 206 212 94 133 289 212 247 275 261 240 235 239 242 242 233 226 235 234 236 237 241 244 246 246 244 240 237 239 239 237 240 242 245 244 248 249 249 245 243 239 239 238 240 245 253 254 260 266
194 163 189 211 192 228 242 257 254 222 237 238 246 247 256 244 229 224 231 229 228 234 242 244 243 246 244 240 239 240 241 241 241 241 242 243 245 246 244 243 242 240 240 240 242 251 254 257 265
174 190 204 185 216 252 274 233 209 244 156 180 291 280 258 274 238 221 228 228 234 243 246 242 238 237 236 234 235 237 238 238 240 239 239 242 241 243 244 241 240 241 236 235 238 245 245 250 260
203 196 196 186 194 193 60 271 52 171 142 87 323 277 254 237 209 210 226 228 231 232 228 224 223 222 223 225 227 230 233 234 235 236 239 237 238 242 243 241 239 238 231 234 237 240 238 250 257